Theta_e
337 324 320 317 315 315 315 314 312 311 313 312 311 311 310 310 310 310 310 309 310 312 313 314 316 316 317 321 323 320 317 315 316 320 327 340 343 343 342 342 342 338 342
336 323 320 318 315 315 316 315 313 312 314 313 312 312 312 312 312 312 311 311 312 314 317 320 323 324 324 324 327 329 328 328 326 318 315 323 339 342 342 342 342 344 340
336 323 321 319 315 315 316 316 314 313 314 314 313 313 314 314 314 314 314 313 315 319 321 323 327 330 330 331 331 329 329 330 329 329 324 314 321 337 341 341 342 343 340
327 323 321 319 316 316 316 316 315 314 315 314 314 315 315 316 316 316 316 318 321 327 329 330 331 332 334 335 334 333 332 331 331 331 328 316 313 324 323 339 340 341 344
327 323 321 319 316 316 316 316 316 314 316 316 316 316 317 317 318 319 319 321 327 332 332 333 334 334 334 337 337 335 333 332 332 331 325 321 325 326 334 333 340 340 342
328 324 321 319 316 316 316 316 316 315 316 316 316 317 318 318 319 320 321 323 326 332 335 336 337 337 336 335 337 337 336 335 335 331 325 326 329 328 340 340 340 340 339
329 324 321 319 316 316 316 316 317 316 316 317 317 317 318 318 320 320 321 324 327 331 335 337 338 338 337 336 337 337 334 329 333 334 329 331 332 331 338 337 336 337 339
334 328 324 320 318 316 317 317 317 317 316 317 318 318 318 319 320 321 321 324 329 334 336 339 338 335 333 333 333 334 335 334 331 332 333 333 334 334 333 330 329 330 337
336 335 329 322 317 317 316 317 317 318 317 317 318 318 319 320 321 322 321 323 330 334 335 334 331 327 328 328 329 333 333 334 333 327 327 333 334 335 333 330 329 328 328
337 337 335 330 318 317 316 317 317 318 318 317 318 319 320 320 322 322 322 324 330 331 329 328 328 328 328 327 329 333 333 336 335 330 325 326 334 334 333 332 329 328 326
339 338 338 335 324 318 317 317 317 318 318 318 318 319 320 322 323 323 322 330 333 334 332 331 330 329 326 325 328 332 333 334 333 332 328 324 327 334 333 331 329 328 324
339 340 339 339 334 323 322 321 319 318 319 319 319 319 321 323 324 324 323 333 335 336 334 332 330 328 324 323 323 329 331 331 331 330 328 325 327 332 333 331 330 330 325
329 333 338 338 339 335 328 325 325 321 320 322 322 322 322 324 326 325 327 335 334 335 335 332 330 329 328 327 328 323 328 329 329 327 326 324 329 331 334 332 331 330 327
329 330 331 337 340 340 338 329 328 328 324 328 327 325 323 326 326 326 334 335 334 333 334 333 331 330 331 329 330 330 330 331 331 330 330 325 328 329 333 332 332 326 324
329 327 330 337 339 340 340 337 335 331 328 331 330 327 325 327 326 332 337 336 335 335 334 333 332 331 331 330 331 332 330 330 330 331 332 331 329 331 331 331 331 328 323
329 329 330 336 338 341 341 339 338 337 333 332 332 328 327 327 328 335 338 336 333 334 334 332 332 332 330 330 331 331 331 330 328 329 330 330 329 330 330 330 330 332 333
329 328 329 333 338 340 341 340 340 340 338 335 332 329 327 328 330 336 337 334 335 335 333 333 331 331 331 330 330 329 328 329 330 328 329 329 330 330 329 328 329 330 334
328 329 328 332 337 341 343 341 341 341 340 339 338 336 338 336 336 338 336 336 336 335 334 333 333 331 331 331 331 330 328 328 328 328 329 329 331 330 329 328 328 326 332
329 328 328 332 334 338 344 343 342 342 342 341 339 340 340 339 339 338 335 336 335 335 333 334 334 332 331 330 329 329 329 329 328 328 328 329 329 330 329 327 328 326 322
329 329 329 330 335 340 344 343 342 343 343 342 342 342 341 341 340 337 335 334 334 334 334 333 333 332 331 330 329 329 328 328 327 328 328 328 328 329 329 328 329 329 320
329 328 330 335 340 341 343 346 343 344 344 344 342 340 339 339 334 335 335 335 335 334 334 332 331 330 330 329 328 328 327 327 328 328 328 328 329 329 328 328 328 329 328
328 329 332 335 341 344 344 344 344 341 340 338 336 336 335 334 335 335 336 334 333 333 332 331 330 329 329 328 327 326 327 326 327 326 326 328 328 328 327 328 326 327 329
331 335 336 339 345 347 346 344 344 341 337 336 335 335 335 334 336 335 334 333 332 331 330 329 329 329 328 327 327 325 326 325 324 326 327 327 328 327 328 328 327 328 329
335 342 346 347 348 348 347 345 342 337 335 335 334 333 336 336 335 334 333 331 330 329 330 330 329 329 328 326 326 326 325 325 324 323 326 328 328 327 327 327 328 329 330
341 347 349 349 349 347 347 345 343 338 337 337 335 334 335 334 334 333 331 330 330 330 329 329 329 329 328 327 326 326 326 325 326 322 322 324 327 328 329 328 330 329 327
342 349 349 349 348 347 346 344 342 338 335 335 335 335 335 334 333 332 332 331 328 328 329 329 329 329 328 328 327 327 326 324 324 323 322 321 322 327 327 327 327 329 328
Wind_Speed
18 34 31 26 23 20 19 19 18 17 16 15 14 12 11 9 8 8 7 6 5 4 4 2 1 0 1 1 2 4 4 5 5 4 4 2 3 4 5 6 8 10 15
32 35 32 28 24 21 19 19 18 16 15 14 13 13 11 10 9 8 7 6 5 5 4 3 1 1 1 1 1 2 4 4 4 6 7 6 4 4 5 7 9 9 12
34 38 34 28 25 21 20 19 18 17 15 14 13 13 12 10 8 7 6 5 5 5 4 3 3 2 2 2 2 3 4 5 6 5 6 8 6 4 4 8 8 10 12
34 37 35 31 27 25 23 21 20 18 16 15 13 12 12 11 10 8 6 5 6 6 5 4 3 3 4 4 4 4 4 5 6 7 7 6 6 5 6 10 10 10 12
34 36 36 34 31 28 26 25 23 21 19 17 15 13 12 12 10 9 8 8 8 7 6 6 6 6 6 7 7 6 6 6 7 7 8 4 3 4 7 14 12 11 13
32 35 36 36 34 31 30 28 27 25 22 19 17 15 14 13 12 10 10 9 8 8 9 9 9 9 9 9 9 10 9 8 8 9 7 5 5 5 4 13 12 12 14
32 36 36 36 35 33 32 30 29 28 26 23 20 18 17 15 13 12 11 10 10 10 11 11 11 13 13 12 11 11 12 11 11 10 7 6 6 5 11 10 10 10 13
29 35 36 37 37 37 35 33 32 30 28 26 24 21 19 16 14 13 11 11 10 10 11 12 13 13 13 13 14 16 15 13 12 12 9 8 5 7 14 12 10 8 10
28 32 34 39 40 38 38 36 35 34 32 30 27 24 22 18 16 14 11 10 10 11 12 13 14 14 13 14 14 16 17 16 15 14 13 11 5 10 15 13 11 9 12
33 33 34 37 43 43 41 40 38 37 35 33 31 28 24 21 18 16 12 11 11 11 10 11 12 13 13 13 14 15 16 16 16 16 14 14 10 11 16 16 14 11 11
29 33 36 38 43 47 44 43 39 37 36 34 32 30 27 25 22 18 15 12 13 12 12 11 11 11 11 13 13 14 15 19 21 20 18 15 14 13 17 18 15 13 12
31 37 37 39 42 46 44 42 42 40 39 38 36 34 31 28 24 19 15 13 15 14 14 11 10 9 9 10 12 13 17 20 21 21 20 19 15 15 17 17 15 12 13
17 29 36 40 44 45 44 43 43 44 43 41 39 36 33 29 24 20 17 14 14 15 16 13 12 13 10 10 7 9 12 16 20 20 19 20 16 14 20 17 16 14 13
20 19 26 39 45 47 44 46 46 46 46 44 42 38 34 29 25 20 19 15 17 17 18 16 14 14 14 12 12 10 12 13 15 15 15 15 16 18 21 18 16 13 13
24 20 28 32 44 49 47 45 44 46 47 44 42 38 35 30 26 21 19 17 17 17 17 15 16 16 16 16 15 13 13 13 11 14 14 11 13 15 22 18 17 14 15
30 28 25 32 40 45 45 48 48 45 46 44 41 38 36 31 24 22 19 19 18 17 16 13 13 16 15 15 17 15 15 15 15 14 12 14 17 18 19 17 15 16 16
35 29 24 31 38 42 44 48 44 42 40 40 38 36 36 29 26 24 22 19 18 17 16 14 13 13 14 13 16 18 18 17 14 14 14 17 19 20 19 18 16 17 17
25 27 30 31 33 37 40 44 43 41 39 37 34 33 29 28 28 25 21 18 14 15 15 15 15 16 18 19 19 19 17 16 16 14 13 14 17 18 19 18 16 15 18
21 28 27 26 29 36 39 40 39 38 35 34 33 32 27 28 27 27 22 17 15 16 16 16 17 18 20 21 21 19 17 17 17 15 15 17 19 19 18 18 14 13 17
26 29 26 25 31 34 35 34 33 32 32 31 30 28 28 27 28 25 19 13 15 17 17 17 18 18 20 20 19 16 15 18 19 17 16 17 20 22 18 15 11 17 16
17 19 20 24 31 32 32 31 30 31 29 29 26 27 24 28 28 24 17 15 18 17 17 17 15 15 17 19 10 11 12 10 11 15 15 17 18 18 18 18 15 13 16
22 24 21 26 31 35 31 30 26 32 31 30 25 21 22 25 25 20 16 15 14 13 13 13 11 13 13 11 6 3 2 4 17 19 17 17 19 17 17 17 18 16 15
18 21 23 27 29 31 32 29 24 27 25 19 21 20 24 24 22 18 14 11 10 11 11 10 10 12 10 9 13 4 2 3 1 8 19 20 16 16 17 17 17 17 15
19 20 22 23 27 27 30 33 33 22 20 19 21 20 24 23 19 13 11 9 9 9 9 8 8 11 10 9 8 16 4 3 2 1 5 18 17 13 14 15 14 16 14
25 25 24 25 26 30 30 30 30 27 21 20 18 19 21 18 13 12 10 7 7 8 8 8 9 10 12 12 13 6 14 6 3 2 2 1 10 10 10 14 11 13 13
27 28 29 30 30 29 26 27 27 25 20 19 18 21 19 16 12 9 8 8 7 6 8 8 7 9 10 12 13 14 9 5 5 4 2 1 4 5 5 6 10 11 13
Wind_Direction
187 179 173 171 164 157 148 143 139 138 137 133 133 132 131 128 129 132 134 139 144 143 144 141 134 216 256 290 293 290 277 258 243 236 229 219 180 163 174 180 167 153 142
182 180 174 173 168 162 156 149 147 147 143 140 139 138 137 135 137 137 137 139 146 149 144 141 147 186 250 247 266 298 303 299 279 253 239 234 212 179 185 190 190 177 154
174 176 174 174 172 166 164 158 155 155 153 148 148 145 142 141 143 142 140 147 156 159 164 168 178 217 246 248 246 262 273 289 295 289 269 240 228 204 189 208 199 185 169
174 174 175 177 177 174 172 168 165 163 162 158 156 153 151 153 156 155 154 164 172 177 181 197 212 229 250 254 249 249 259 266 280 291 284 265 221 219 256 221 211 194 187
177 178 179 181 182 180 179 175 172 172 171 169 167 166 166 167 169 169 171 180 187 192 201 216 224 236 246 252 253 252 255 261 268 275 279 256 249 299 282 206 208 199 197
183 184 184 185 185 184 184 183 179 178 178 179 179 178 179 178 179 181 186 191 193 199 212 224 233 242 248 253 258 244 247 254 260 266 268 233 288 298 189 176 196 198 195
184 188 190 190 189 189 191 188 187 184 185 186 186 187 188 187 188 188 195 200 201 207 218 228 237 246 245 250 250 247 254 253 254 260 249 267 297 237 203 181 184 197 197
191 191 194 196 196 194 194 193 192 193 191 191 191 193 195 196 196 198 201 203 206 214 225 235 242 248 248 250 248 243 247 250 249 252 252 254 282 210 203 196 189 196 200
199 193 196 201 202 201 199 199 197 198 197 196 196 198 199 201 205 207 208 208 212 222 231 240 250 256 255 254 248 243 245 249 249 250 250 246 265 217 216 211 218 220 210
197 200 202 204 205 205 203 204 203 202 203 201 199 201 203 205 209 215 219 215 221 227 231 241 250 259 261 257 254 249 245 246 247 254 251 245 243 221 218 214 211 224 215
207 210 208 206 208 209 207 207 207 208 208 208 204 203 206 208 211 218 226 229 234 235 236 240 256 267 260 260 254 246 244 243 249 255 253 250 239 235 214 210 211 221 215
203 213 214 210 210 211 209 210 209 209 213 213 211 205 207 211 214 220 230 233 241 244 244 246 255 263 259 264 257 246 242 244 248 252 253 252 242 227 223 217 207 215 210
209 209 216 217 215 213 209 212 213 213 214 217 215 211 209 211 215 218 228 232 236 243 246 247 249 254 257 261 265 238 243 252 255 253 256 248 242 242 229 221 221 213 215
249 217 213 217 215 216 210 213 214 214 215 218 217 214 213 211 215 219 222 229 239 245 246 242 247 252 253 255 247 248 263 273 261 257 260 245 241 248 221 218 223 218 213
244 237 214 211 215 218 210 212 213 216 217 219 220 215 216 214 214 217 221 231 240 245 239 237 246 251 254 249 244 250 247 249 267 261 262 251 239 222 218 219 216 215 221
245 247 218 212 213 213 210 214 216 216 218 220 222 220 219 218 213 216 216 227 241 244 228 231 238 249 241 242 227 240 249 247 256 254 247 252 223 222 221 223 229 222 214
252 254 215 209 210 212 215 214 213 216 216 217 222 221 219 215 212 211 217 227 238 227 225 230 242 231 226 228 234 244 253 258 251 244 241 253 212 216 221 229 227 235 220
263 231 215 212 208 213 214 214 211 212 215 216 215 214 211 207 203 205 215 220 211 222 238 233 244 240 242 244 251 256 252 250 253 247 239 225 206 212 222 223 234 235 221
239 216 221 215 213 217 213 211 206 208 211 213 212 211 205 205 202 208 210 217 229 236 245 251 245 250 253 249 249 254 256 252 252 245 234 228 223 218 228 229 236 242 226
225 227 229 218 215 212 209 204 202 206 208 210 209 202 207 202 199 209 212 221 228 238 245 249 253 252 250 251 248 251 254 251 256 240 238 232 222 220 222 229 250 239 235
217 212 224 208 208 202 191 178 182 183 190 198 189 186 189 191 203 201 211 222 229 232 243 265 261 257 254 247 234 236 245 240 238 228 228 234 227 225 230 241 242 239 238
220 222 214 208 203 200 186 181 170 166 167 170 176 183 190 202 195 204 213 217 225 238 257 271 262 261 262 235 182 137 211 251 243 239 240 236 231 231 240 231 239 239 253
209 209 202 203 198 189 182 171 163 156 152 155 163 168 188 194 194 196 208 227 235 248 255 262 250 235 227 211 207 167 143 212 149 233 232 229 230 226 239 231 235 236 234
189 188 185 182 179 175 168 162 154 154 158 167 172 177 176 185 188 202 230 230 248 251 247 244 239 234 223 211 219 229 235 110 155 326 239 225 224 245 243 244 243 226 236
167 161 160 162 160 162 158 163 164 167 167 178 186 182 176 175 198 214 216 225 242 238 232 236 232 229 226 225 214 201 226 210 194 143 240 175 208 232 234 225 209 217 230
142 140 148 150 153 156 157 162 168 171 174 165 169 164 166 177 195 202 217 223 226 232 234 239 241 239 235 238 235 226 207 177 187 182 177 188 151 170 174 181 218 213 220